| time (UTC) | temp F | wind direction | speed MPH | gust MPH | rain 1hr in | rain 24hr in | rain mn in | humidity % | barometer mb |
| 20260904232212 | 55 | 103 | 0.0 | 1.0 | 0.00 | 0.29 | 0.29 | 92 | 1014.8 |
| 20260904231707 | 55 | 112 | 2.0 | 2.0 | 0.00 | 0.29 | 0.29 | 92 | 1015.0 |
| 20260904231203 | 55 | 140 | 3.0 | 3.0 | 0.07 | 0.29 | 0.29 | 94 | 1015.3 |
| 20260904230702 | 55 | 146 | 1.0 | 1.0 | 0.07 | 0.29 | 0.29 | 95 | 1015.3 |
| 20260904230157 | 55 | 133 | 0.0 | 2.0 | 0.00 | 0.28 | 0.28 | 95 | 1015.1 |
| 20260904225656 | 55 | 105 | 2.0 | 2.0 | 0.00 | 0.28 | 0.28 | 94 | 1015.0 |
| 20260904225150 | 55 | 114 | 1.0 | 2.0 | 0.00 | 0.28 | 0.28 | 94 | 1014.8 |
| 20260904224644 | 54 | 121 | 1.0 | 2.0 | 0.05 | 0.28 | 0.28 | 94 | 1014.8 |
| 20260904224144 | 55 | 139 | 2.0 | 2.0 | 0.12 | 0.28 | 0.28 | 93 | 1014.9 |
| 20260904223644 | 55 | 123 | 1.0 | 1.0 | 0.00 | 0.26 | 0.26 | 94 | 1014.8 |
| 20260904223140 | 55 | 123 | 2.0 | 3.0 | 0.05 | 0.26 | 0.26 | 94 | 1015.0 |
| 20260904222636 | 55 | 123 | 0.0 | 0.0 | 0.12 | 0.26 | 0.26 | 94 | 1014.9 |
| 20260904222131 | 55 | 111 | 1.0 | 2.0 | 0.19 | 0.25 | 0.25 | 93 | 1015.0 |
| 20260904221630 | 55 | 131 | 2.0 | 6.0 | 0.19 | 0.24 | 0.24 | 92 | 1014.9 |
| 20260904221125 | 55 | 92 | 4.0 | 6.0 | 0.12 | 0.22 | 0.22 | 92 | 1015.1 |
| 20260904220620 | 55 | 108 | 1.0 | 6.0 | 0.12 | 0.21 | 0.21 | 92 | 1015.1 |
| 20260904220115 | 56 | 108 | 2.0 | 3.0 | 0.12 | 0.20 | 0.20 | 92 | 1015.0 |
| 20260904215615 | 56 | 114 | 0.0 | 1.0 | 0.24 | 0.19 | 0.19 | 91 | 1015.0 |
| 20260904215112 | 57 | 160 | 0.0 | 3.0 | 0.17 | 0.17 | 0.17 | 90 | 1014.9 |
| 20260904214607 | 57 | 115 | 0.0 | 3.0 | 0.12 | 0.15 | 0.15 | 90 | 1015.1 |
| 20260904214102 | 57 | 137 | 1.0 | 1.0 | 0.00 | 0.13 | 0.13 | 89 | 1015.0 |
| 20260904213600 | 57 | 112 | 1.0 | 2.0 | 0.00 | 0.13 | 0.13 | 87 | 1014.8 |
| 20260904213057 | 58 | 125 | 0.0 | 1.0 | 0.00 | 0.13 | 0.13 | 87 | 1014.8 |
| 20260904212556 | 58 | 136 | 0.0 | 0.0 | 0.00 | 0.13 | 0.13 | 86 | 1014.3 |
| 20260904212052 | 59 | 240 | 1.0 | 3.0 | 0.00 | 0.13 | 0.13 | 88 | 1014.4 |
| 20260904211551 | 59 | 145 | 0.0 | 1.0 | 0.00 | 0.13 | 0.13 | 87 | 1014.2 |
| 20260904211047 | 59 | 117 | 0.0 | 0.0 | 0.00 | 0.13 | 0.13 | 87 | 1013.9 |
| 20260904210546 | 58 | 136 | 0.0 | 0.0 | 0.00 | 0.13 | 0.13 | 89 | 1013.9 |
| 20260904210042 | 57 | 168 | 1.0 | 1.0 | 0.00 | 0.13 | 0.13 | 85 | 1013.8 |
| 20260904205542 | 58 | 158 | 0.0 | 1.0 | 0.05 | 0.13 | 0.13 | 86 | 1013.8 |
| 20260904205039 | 58 | 93 | 0.0 | 1.0 | 0.17 | 0.13 | 0.13 | 82 | 1013.8 |
| 20260904204535 | 60 | 141 | 1.0 | 1.0 | 0.12 | 0.11 | 0.11 | 80 | 1013.8 |
| 20260904204031 | 61 | 167 | 1.0 | 1.0 | 0.14 | 0.10 | 0.10 | 79 | 1013.9 |
| 20260904203526 | 62 | 166 | 1.0 | 1.0 | 0.00 | 0.08 | 0.08 | 73 | 1013.7 |
| 20260904203023 | 63 | 171 | 1.0 | 2.0 | 0.00 | 0.08 | 0.08 | 68 | 1013.4 |
| 20260904202519 | 63 | 138 | 0.0 | 0.0 | 0.00 | 0.08 | 0.08 | 66 | 1013.7 |
| 20260904202014 | 63 | 65 | 0.0 | 3.0 | 0.00 | 0.08 | 0.08 | 65 | 1013.4 |
| 20260904201509 | 63 | 104 | 2.0 | 2.0 | 0.00 | 0.08 | 0.08 | 63 | 1013.5 |
| 20260904201005 | 64 | 128 | 0.0 | 0.0 | 0.00 | 0.08 | 0.08 | 66 | 1013.4 |
| 20260904200503 | 63 | 121 | 0.0 | 1.0 | 0.00 | 0.08 | 0.08 | 62 | 1013.4 |
| 20260904195958 | 63 | 104 | 1.0 | 1.0 | 0.00 | 0.08 | 0.08 | 64 | 1013.3 |
| 20260904195456 | 64 | 200 | 1.0 | 3.0 | 0.00 | 0.08 | 0.08 | 66 | 1013.4 |
| 20260904194955 | 64 | 98 | 1.0 | 3.0 | 0.00 | 0.08 | 0.08 | 64 | 1013.4 |
| 20260904194451 | 65 | 21 | 6.0 | 8.0 | 0.00 | 0.08 | 0.08 | 63 | 1013.6 |
| 20260904193946 | 66 | 122 | 2.0 | 3.0 | 0.00 | 0.08 | 0.08 | 65 | 1013.6 |
| 20260904193441 | 64 | 117 | 2.0 | 3.0 | 0.00 | 0.08 | 0.08 | 60 | 1013.4 |
| 20260904192936 | 63 | 197 | 2.0 | 7.0 | 0.00 | 0.08 | 0.08 | 65 | 1013.5 |
| 20260904192431 | 63 | 328 | 4.0 | 7.0 | 0.00 | 0.08 | 0.08 | 69 | 1013.6 |
| 20260904191928 | 64 | 65 | 2.0 | 4.0 | 0.00 | 0.08 | 0.08 | 67 | 1013.8 |
| 20260904191424 | 64 | 70 | 3.0 | 4.0 | 0.00 | 0.08 | 0.08 | 65 | 1013.7 |
| 20260904190921 | 62 | 112 | 1.0 | 3.0 | 0.00 | 0.08 | 0.08 | 73 | 1013.7 |
| 20260904190420 | 62 | 68 | 4.0 | 6.0 | 0.00 | 0.08 | 0.08 | 68 | 1013.8 |
| 20260904185917 | 62 | 116 | 3.0 | 6.0 | 0.00 | 0.08 | 0.08 | 69 | 1013.9 |
| 20260904185413 | 62 | 135 | 0.0 | 1.0 | 0.00 | 0.08 | 0.08 | 73 | 1013.6 |
| 20260904184913 | 62 | 123 | 0.0 | 2.0 | 0.00 | 0.08 | 0.08 | 69 | 1014.0 |
| 20260904184407 | 61 | 146 | 1.0 | 1.0 | 0.00 | 0.08 | 0.08 | 73 | 1014.0 |
| 20260904183902 | 61 | 129 | 2.0 | 2.0 | 0.00 | 0.08 | 0.08 | 69 | 1013.9 |
| 20260904183357 | 62 | 95 | 2.0 | 4.0 | 0.00 | 0.08 | 0.08 | 67 | 1013.7 |
| 20260904182853 | 62 | 126 | 2.0 | 3.0 | 0.00 | 0.08 | 0.08 | 69 | 1013.8 |
| 20260904182348 | 61 | 145 | 0.0 | 3.0 | 0.00 | 0.08 | 0.08 | 70 | 1013.6 |
| 20260904181843 | 60 | 128 | 1.0 | 2.0 | 0.00 | 0.08 | 0.08 | 72 | 1013.7 |
| 20260904181344 | 61 | 42 | 3.0 | 3.0 | 0.00 | 0.08 | 0.08 | 71 | 1013.8 |
| 20260904180839 | 63 | 95 | 1.0 | 2.0 | 0.00 | 0.08 | 0.08 | 70 | 1013.7 |
| 20260904180335 | 61 | 113 | 0.0 | 2.0 | 0.00 | 0.08 | 0.08 | 75 | 1013.6 |
| 20260904175833 | 59 | 127 | 1.0 | 4.0 | 0.00 | 0.08 | 0.08 | 77 | 1013.6 |
| 20260904175334 | 59 | 127 | 1.0 | 4.0 | 0.00 | 0.08 | 0.08 | 76 | 1013.6 |
| 20260904174832 | 60 | 113 | 2.0 | 4.0 | 0.00 | 0.08 | 0.08 | 75 | 1013.6 |
| 20260904174329 | 60 | 106 | 4.0 | 4.0 | 0.00 | 0.08 | 0.08 | 74 | 1013.5 |
| 20260904173824 | 59 | 95 | 3.0 | 6.0 | 0.00 | 0.08 | 0.08 | 77 | 1013.3 |
| 20260904173320 | 57 | 138 | 1.0 | 4.0 | 0.00 | 0.08 | 0.08 | 82 | 1013.5 |
| 20260904172816 | 57 | 53 | 2.0 | 2.0 | 0.00 | 0.08 | 0.08 | 83 | 1013.3 |
| 20260904172314 | 57 | 101 | 1.0 | 7.0 | 0.00 | 0.08 | 0.08 | 83 | 1013.5 |
| 20260904171810 | 57 | 88 | 1.0 | 4.0 | 0.00 | 0.08 | 0.08 | 85 | 1013.3 |
| 20260904171305 | 57 | 101 | 4.0 | 4.0 | 0.00 | 0.08 | 0.08 | 85 | 1013.2 |
| 20260904170801 | 56 | 113 | 5.0 | 6.0 | 0.00 | 0.08 | 0.08 | 86 | 1013.2 |
| 20260904170257 | 55 | 132 | 0.0 | 4.0 | 0.00 | 0.08 | 0.08 | 89 | 1013.3 |
| 20260904165756 | 54 | 146 | 2.0 | 4.0 | 0.00 | 0.08 | 0.08 | 89 | 1013.5 |
| 20260904165256 | 54 | 130 | 3.0 | 4.0 | 0.00 | 0.08 | 0.08 | 90 | 1013.3 |
| 20260904164750 | 54 | 97 | 2.0 | 6.0 | 0.00 | 0.08 | 0.08 | 89 | 1013.4 |
| 20260904164246 | 54 | 105 | 3.0 | 8.0 | 0.00 | 0.08 | 0.08 | 89 | 1013.3 |
| 20260904163742 | 54 | 89 | 1.0 | 3.0 | 0.00 | 0.08 | 0.08 | 90 | 1013.5 |
| 20260904163237 | 54 | 77 | 2.0 | 3.0 | 0.00 | 0.08 | 0.08 | 92 | 1013.5 |
| 20260904162735 | 53 | 129 | 2.0 | 6.0 | 0.00 | 0.08 | 0.08 | 92 | 1013.3 |
| 20260904162231 | 52 | 94 | 4.0 | 7.0 | 0.00 | 0.08 | 0.08 | 93 | 1013.3 |
| 20260904161726 | 52 | 100 | 3.0 | 8.0 | 0.00 | 0.08 | 0.08 | 93 | 1013.3 |
| 20260904161226 | 52 | 138 | 3.0 | 4.0 | 0.00 | 0.08 | 0.08 | 93 | 1013.1 |
| 20260904160722 | 52 | 108 | 8.0 | 9.0 | 0.00 | 0.08 | 0.08 | 94 | 1013.3 |
| 20260904160218 | 51 | 89 | 2.0 | 7.0 | 0.00 | 0.08 | 0.08 | 95 | 1013.3 |
| 20260904155717 | 51 | 114 | 2.0 | 6.0 | 0.00 | 0.08 | 0.08 | 95 | 1013.2 |
| 20260904155217 | 51 | 122 | 3.0 | 4.0 | 0.00 | 0.08 | 0.08 | 95 | 1013.1 |
| 20260904154715 | 51 | 95 | 4.0 | 6.0 | 0.00 | 0.08 | 0.08 | 95 | 1013.2 |
| 20260904154210 | 51 | 140 | 4.0 | 6.0 | 0.00 | 0.08 | 0.08 | 95 | 1013.2 |
| 20260904153706 | 51 | 111 | 3.0 | 6.0 | 0.00 | 0.08 | 0.08 | 95 | 1013.1 |
| 20260904153201 | 51 | 109 | 0.0 | 4.0 | 0.00 | 0.08 | 0.08 | 95 | 1012.9 |
| 20260904152658 | 51 | 96 | 3.0 | 6.0 | 0.00 | 0.08 | 0.08 | 94 | 1013.2 |
| 20260904152153 | 51 | 128 | 5.0 | 7.0 | 0.05 | 0.08 | 0.08 | 94 | 1013.1 |
| 20260904151648 | 51 | 106 | 6.0 | 8.0 | 0.07 | 0.07 | 0.07 | 93 | 1013.3 |
| 20260904151146 | 51 | 99 | 5.0 | 7.0 | 0.07 | 0.07 | 0.07 | 93 | 1012.9 |
| 20260904150642 | 51 | 97 | 6.0 | 7.0 | 0.00 | 0.06 | 0.06 | 93 | 1012.9 |
| 20260904150138 | 51 | 117 | 6.0 | 8.0 | 0.00 | 0.06 | 0.06 | 93 | 1012.8 |
| 20260904145636 | 51 | 131 | 4.0 | 6.0 | 0.05 | 0.06 | 0.06 | 94 | 1012.9 |
| 20260904145131 | 51 | 131 | 4.0 | 4.0 | 0.05 | 0.06 | 0.06 | 94 | 1013.1 |
| 20260904144627 | 51 | 123 | 5.0 | 7.0 | 0.00 | 0.05 | 0.05 | 94 | 1012.8 |
| 20260904144122 | 51 | 123 | 4.0 | 6.0 | 0.00 | 0.05 | 0.05 | 94 | 1013.0 |
| 20260904143618 | 51 | 114 | 2.0 | 3.0 | 0.00 | 0.05 | 0.05 | 94 | 1012.7 |
| 20260904143115 | 51 | 130 | 2.0 | 6.0 | 0.00 | 0.05 | 0.05 | 94 | 1012.6 |
| 20260904142611 | 50 | 127 | 3.0 | 6.0 | 0.00 | 0.05 | 0.05 | 94 | 1012.6 |
| 20260904142112 | 50 | 101 | 4.0 | 6.0 | 0.00 | 0.05 | 0.05 | 94 | 1012.5 |
| 20260904141606 | 50 | 93 | 5.0 | 8.0 | 0.00 | 0.05 | 0.05 | 94 | 1012.5 |
| 20260904141102 | 50 | 119 | 1.0 | 3.0 | 0.00 | 0.05 | 0.05 | 94 | 1012.5 |
| 20260904140558 | 50 | 111 | 3.0 | 6.0 | 0.00 | 0.05 | 0.05 | 94 | 1012.2 |
| 20260904140057 | 50 | 130 | 1.0 | 4.0 | 0.00 | 0.05 | 0.05 | 94 | 1012.5 |
| 20260904135557 | 50 | 123 | 2.0 | 4.0 | 0.00 | 0.05 | 0.05 | 94 | 1012.4 |
| 20260904135053 | 50 | 110 | 4.0 | 7.0 | 0.00 | 0.05 | 0.05 | 94 | 1012.1 |
| 20260904134549 | 50 | 128 | 4.0 | 7.0 | 0.00 | 0.05 | 0.05 | 94 | 1012.2 |
| 20260904134042 | 50 | 123 | 3.0 | 7.0 | 0.00 | 0.05 | 0.05 | 94 | 1012.1 |
| 20260904133537 | 50 | 131 | 8.0 | 9.0 | 0.00 | 0.05 | 0.05 | 94 | 1012.1 |
| 20260904133033 | 50 | 104 | 4.0 | 7.0 | 0.00 | 0.05 | 0.05 | 94 | 1012.2 |
| 20260904132534 | 50 | 108 | 3.0 | 4.0 | 0.00 | 0.05 | 0.05 | 94 | 1012.0 |
| 20260904132033 | 50 | 117 | 0.0 | 2.0 | 0.00 | 0.05 | 0.05 | 94 | 1011.8 |
| 20260904131533 | 50 | 101 | 4.0 | 7.0 | 0.00 | 0.05 | 0.05 | 93 | 1012.0 |
| 20260904131029 | 50 | 114 | 3.0 | 7.0 | 0.07 | 0.05 | 0.05 | 94 | 1012.0 |
| 20260904130528 | 50 | 136 | 2.0 | 6.0 | 0.07 | 0.05 | 0.05 | 94 | 1011.8 |
| 20260904130023 | 50 | 78 | 5.0 | 7.0 | 0.00 | 0.04 | 0.04 | 94 | 1011.8 |
| 20260904125520 | 50 | 120 | 2.0 | 8.0 | 0.00 | 0.04 | 0.04 | 94 | 1011.6 |
| 20260904125014 | 50 | 110 | 7.0 | 10.0 | 0.00 | 0.04 | 0.04 | 94 | 1011.7 |
| 20260904124510 | 50 | 114 | 4.0 | 6.0 | 0.00 | 0.04 | 0.04 | 94 | 1011.7 |
| 20260904124006 | 50 | 130 | 3.0 | 8.0 | 0.00 | 0.04 | 0.04 | 94 | 1011.6 |
| 20260904123505 | 50 | 101 | 6.0 | 8.0 | 0.00 | 0.04 | 0.04 | 94 | 1011.7 |
| 20260904123001 | 50 | 130 | 6.0 | 7.0 | 0.00 | 0.04 | 0.04 | 94 | 1011.7 |
| 20260904122455 | 50 | 57 | 5.0 | 9.0 | 0.00 | 0.04 | 0.04 | 94 | 1011.6 |
| 20260904121949 | 50 | 90 | 4.0 | 7.0 | 0.00 | 0.04 | 0.04 | 95 | 1011.4 |
| 20260904121445 | 50 | 128 | 3.0 | 8.0 | 0.00 | 0.04 | 0.04 | 95 | 1011.5 |
| 20260904120942 | 50 | 107 | 2.0 | 4.0 | 0.00 | 0.04 | 0.04 | 95 | 1011.5 |
| 20260904120438 | 50 | 93 | 3.0 | 6.0 | 0.00 | 0.04 | 0.04 | 95 | 1011.8 |
| 20260904115932 | 50 | 102 | 2.0 | 2.0 | 0.00 | 0.04 | 0.04 | 95 | 1011.7 |
| 20260904115428 | 50 | 94 | 4.0 | 4.0 | 0.00 | 0.04 | 0.04 | 95 | 1011.6 |
| 20260904114928 | 50 | 124 | 2.0 | 4.0 | 0.05 | 0.04 | 0.04 | 95 | 1011.6 |
| 20260904114427 | 50 | 100 | 2.0 | 6.0 | 0.05 | 0.04 | 0.04 | 95 | 1011.7 |
| 20260904113923 | 50 | 74 | 1.0 | 2.0 | 0.00 | 0.03 | 0.03 | 94 | 1011.5 |
| 20260904113423 | 50 | 124 | 5.0 | 7.0 | 0.00 | 0.03 | 0.03 | 94 | 1011.4 |
| 20260904112922 | 50 | 134 | 1.0 | 2.0 | 0.07 | 0.03 | 0.03 | 94 | 1011.8 |
| 20260904112418 | 50 | 97 | 2.0 | 4.0 | 0.07 | 0.03 | 0.03 | 94 | 1011.6 |
| 20260904111913 | 50 | 105 | 4.0 | 6.0 | 0.00 | 0.02 | 0.02 | 94 | 1011.5 |
| 20260904111409 | 50 | 73 | 4.0 | 6.0 | 0.00 | 0.02 | 0.02 | 93 | 1011.4 |
| 20260904110905 | 50 | 123 | 5.0 | 6.0 | 0.05 | 0.02 | 0.02 | 93 | 1011.4 |
| 20260904110403 | 50 | 108 | 5.0 | 7.0 | 0.05 | 0.02 | 0.02 | 93 | 1011.6 |
| 20260904105858 | 50 | 104 | 7.0 | 7.0 | 0.07 | 0.01 | 0.01 | 92 | 1011.3 |
| 20260904105353 | 50 | 102 | 3.0 | 7.0 | 0.07 | 0.01 | 0.01 | 92 | 1011.4 |
| 20260904104848 | 50 | 102 | 3.0 | 4.0 | 0.00 | 0.00 | 0.00 | 92 | 1011.5 |
| 20260904104343 | 50 | 107 | 3.0 | 6.0 | 0.00 | 0.00 | 0.00 | 91 | 1011.3 |
| 20260904103841 | 50 | 119 | 4.0 | 7.0 | 0.00 | 0.00 | 0.00 | 91 | 1011.6 |
| 20260904103341 | 50 | 132 | 2.0 | 4.0 | 0.00 | 0.00 | 0.00 | 91 | 1011.4 |
| 20260904102837 | 50 | 101 | 3.0 | 6.0 | 0.00 | 0.00 | 0.00 | 90 | 1011.4 |
| 20260904102332 | 50 | 149 | 4.0 | 6.0 | 0.00 | 0.00 | 0.00 | 90 | 1011.3 |
| 20260904101828 | 50 | 106 | 3.0 | 6.0 | 0.00 | 0.00 | 0.00 | 90 | 1011.3 |
| 20260904101324 | 50 | 113 | 3.0 | 6.0 | 0.00 | 0.00 | 0.00 | 91 | 1011.3 |
| 20260904100819 | 50 | 151 | 4.0 | 6.0 | 0.00 | 0.00 | 0.00 | 91 | 1011.0 |
| 20260904100315 | 50 | 133 | 5.0 | 7.0 | 0.00 | 0.00 | 0.00 | 91 | 1011.4 |
| 20260904095810 | 50 | 133 | 4.0 | 6.0 | 0.00 | 0.00 | 0.00 | 91 | 1011.2 |
| 20260904095306 | 50 | 130 | 5.0 | 7.0 | 0.00 | 0.00 | 0.00 | 91 | 1011.1 |
| 20260904094759 | 50 | 121 | 4.0 | 6.0 | 0.00 | 0.00 | 0.00 | 92 | 1011.2 |
| 20260904094254 | 50 | 110 | 3.0 | 6.0 | 0.00 | 0.00 | 0.00 | 92 | 1011.2 |
| 20260904093751 | 50 | 121 | 2.0 | 4.0 | 0.00 | 0.00 | 0.00 | 92 | 1011.1 |
| 20260904093251 | 50 | 95 | 4.0 | 8.0 | 0.00 | 0.00 | 0.00 | 92 | 1011.2 |
| 20260904092746 | 50 | 125 | 2.0 | 6.0 | 0.00 | 0.00 | 0.00 | 92 | 1010.8 |
| 20260904092243 | 50 | 89 | 3.0 | 6.0 | 0.00 | 0.00 | 0.00 | 92 | 1011.0 |
| 20260904091739 | 50 | 104 | 3.0 | 4.0 | 0.00 | 0.00 | 0.00 | 91 | 1011.2 |
| 20260904091239 | 50 | 108 | 3.0 | 6.0 | 0.00 | 0.00 | 0.00 | 91 | 1010.8 |
| 20260904090735 | 50 | 122 | 4.0 | 6.0 | 0.00 | 0.00 | 0.00 | 91 | 1010.8 |
| 20260904090230 | 50 | 131 | 3.0 | 4.0 | 0.00 | 0.00 | 0.00 | 92 | 1010.8 |
| 20260904085730 | 50 | 144 | 2.0 | 7.0 | 0.00 | 0.00 | 0.00 | 92 | 1010.7 |
| 20260904085225 | 51 | 132 | 2.0 | 4.0 | 0.00 | 0.00 | 0.00 | 91 | 1010.8 |
| 20260904084720 | 51 | 132 | 2.0 | 4.0 | 0.00 | 0.00 | 0.00 | 91 | 1010.7 |
| 20260904084216 | 51 | 126 | 2.0 | 7.0 | 0.00 | 0.00 | 0.00 | 91 | 1011.0 |
| 20260904083712 | 51 | 118 | 4.0 | 8.0 | 0.00 | 0.00 | 0.00 | 91 | 1010.8 |
| 20260904083209 | 51 | 123 | 5.0 | 6.0 | 0.00 | 0.00 | 0.00 | 91 | 1011.2 |
| 20260904082708 | 51 | 103 | 6.0 | 7.0 | 0.00 | 0.00 | 0.00 | 91 | 1011.2 |
| 20260904082204 | 51 | 139 | 3.0 | 8.0 | 0.00 | 0.00 | 0.00 | 91 | 1011.0 |
| 20260904081659 | 51 | 84 | 3.0 | 7.0 | 0.00 | 0.00 | 0.00 | 92 | 1011.0 |
| 20260904081154 | 51 | 121 | 4.0 | 8.0 | 0.00 | 0.00 | 0.00 | 92 | 1011.1 |
| 20260904080650 | 51 | 89 | 4.0 | 8.0 | 0.00 | 0.00 | 0.00 | 92 | 1010.8 |
| 20260904080146 | 51 | 112 | 4.0 | 4.0 | 0.00 | 0.00 | 0.00 | 92 | 1010.7 |
| 20260904075643 | 51 | 111 | 4.0 | 6.0 | 0.00 | 0.00 | 0.00 | 92 | 1010.7 |
| 20260904075143 | 51 | 85 | 6.0 | 7.0 | 0.00 | 0.00 | 0.00 | 92 | 1010.8 |
| 20260904074637 | 51 | 88 | 5.0 | 9.0 | 0.00 | 0.00 | 0.00 | 92 | 1010.8 |
| 20260904074137 | 51 | 126 | 4.0 | 6.0 | 0.00 | 0.00 | 0.00 | 91 | 1011.0 |
| 20260904073632 | 51 | 86 | 3.0 | 8.0 | 0.00 | 0.00 | 0.00 | 91 | 1011.0 |
| 20260904073128 | 51 | 123 | 4.0 | 6.0 | 0.00 | 0.00 | 0.00 | 90 | 1011.1 |
| 20260904072624 | 51 | 114 | 6.0 | 7.0 | 0.00 | 0.00 | 0.00 | 90 | 1010.8 |
| 20260904072118 | 52 | 111 | 2.0 | 6.0 | 0.00 | 0.00 | 0.00 | 90 | 1011.0 |
| 20260904071609 | 52 | 120 | 7.0 | 10.0 | 0.00 | 0.00 | 0.00 | 90 | 1010.7 |
| 20260904071109 | 52 | 109 | 3.0 | 7.0 | 0.00 | 0.00 | 0.00 | 90 | 1010.8 |
| 20260904070608 | 52 | 101 | 7.0 | 9.0 | 0.00 | 0.00 | 0.00 | 90 | 1010.8 |
| 20260904065558 | 52 | 116 | 5.0 | 7.0 | 0.00 | 0.09 | 0.09 | 91 | 1010.8 |
| 20260904065054 | 52 | 111 | 5.0 | 8.0 | 0.00 | 0.09 | 0.09 | 92 | 1010.6 |
| 20260904064550 | 52 | 120 | 4.0 | 8.0 | 0.00 | 0.09 | 0.09 | 92 | 1010.8 |
| 20260904064049 | 52 | 114 | 5.0 | 8.0 | 0.00 | 0.09 | 0.09 | 92 | 1010.8 |
| 20260904063546 | 52 | 100 | 3.0 | 7.0 | 0.00 | 0.09 | 0.09 | 93 | 1011.0 |
| 20260904063041 | 52 | 100 | 4.0 | 4.0 | 0.00 | 0.09 | 0.09 | 93 | 1011.0 |
| 20260904062538 | 52 | 115 | 2.0 | 4.0 | 0.00 | 0.09 | 0.09 | 93 | 1010.8 |
| 20260904062033 | 52 | 113 | 2.0 | 4.0 | 0.00 | 0.09 | 0.09 | 94 | 1011.0 |
| 20260904061528 | 52 | 126 | 2.0 | 3.0 | 0.05 | 0.09 | 0.09 | 94 | 1011.0 |
| 20260904061025 | 52 | 127 | 0.0 | 1.0 | 0.00 | 0.08 | 0.08 | 94 | 1011.1 |
| 20260904060521 | 52 | 137 | 2.0 | 4.0 | 0.00 | 0.08 | 0.08 | 94 | 1011.0 |
| 20260904060016 | 52 | 122 | 0.0 | 1.0 | 0.00 | 0.08 | 0.08 | 95 | 1010.7 |
| 20260904055512 | 52 | 122 | 0.0 | 1.0 | 0.07 | 0.08 | 0.08 | 94 | 1010.8 |
| 20260904055007 | 52 | 113 | 1.0 | 1.0 | 0.07 | 0.08 | 0.08 | 94 | 1011.1 |
| 20260904054502 | 52 | 107 | 1.0 | 2.0 | 0.00 | 0.07 | 0.07 | 94 | 1011.2 |
| 20260904053958 | 53 | 118 | 1.0 | 1.0 | 0.00 | 0.07 | 0.07 | 94 | 1011.2 |
| 20260904053458 | 53 | 120 | 1.0 | 1.0 | 0.00 | 0.07 | 0.07 | 93 | 1011.2 |
| 20260904052953 | 53 | 105 | 1.0 | 1.0 | 0.00 | 0.07 | 0.07 | 93 | 1011.2 |
| 20260904052449 | 53 | 122 | 1.0 | 1.0 | 0.00 | 0.07 | 0.07 | 92 | 1011.0 |
| 20260904051945 | 53 | 120 | 0.0 | 1.0 | 0.00 | 0.07 | 0.07 | 92 | 1011.1 |
| 20260904051442 | 53 | 118 | 1.0 | 1.0 | 0.00 | 0.07 | 0.07 | 92 | 1011.3 |
| 20260904050940 | 53 | 130 | 0.0 | 1.0 | 0.00 | 0.07 | 0.07 | 92 | 1011.3 |
| 20260904050437 | 53 | 113 | 1.0 | 2.0 | 0.00 | 0.07 | 0.07 | 92 | 1011.1 |
| 20260904045937 | 53 | 119 | 0.0 | 0.0 | 0.00 | 0.07 | 0.07 | 91 | 1011.3 |
| 20260904045432 | 53 | 112 | 0.0 | 1.0 | 0.00 | 0.07 | 0.07 | 91 | 1011.1 |
| 20260904044932 | 53 | 141 | 0.0 | 1.0 | 0.00 | 0.07 | 0.07 | 91 | 1011.3 |
| 20260904044429 | 53 | 110 | 1.0 | 1.0 | 0.00 | 0.07 | 0.07 | 90 | 1011.1 |
| 20260904043925 | 53 | 128 | 0.0 | 1.0 | 0.00 | 0.07 | 0.07 | 90 | 1011.2 |
| 20260904043421 | 53 | 130 | 1.0 | 2.0 | 0.00 | 0.07 | 0.07 | 91 | 1011.0 |
| 20260904042916 | 53 | 122 | 1.0 | 1.0 | 0.00 | 0.07 | 0.07 | 91 | 1011.2 |
| 20260904042412 | 53 | 126 | 1.0 | 2.0 | 0.00 | 0.07 | 0.07 | 92 | 1011.3 |
| 20260904041907 | 53 | 109 | 1.0 | 1.0 | 0.00 | 0.07 | 0.07 | 92 | 1010.8 |
| 20260904041403 | 53 | 127 | 0.0 | 1.0 | 0.00 | 0.07 | 0.07 | 92 | 1011.2 |
| 20260904040900 | 53 | 99 | 1.0 | 2.0 | 0.00 | 0.07 | 0.07 | 91 | 1011.1 |
| 20260904040354 | 53 | 137 | 0.0 | 0.0 | 0.00 | 0.07 | 0.07 | 91 | 1011.2 |
| 20260904035850 | 53 | 135 | 1.0 | 2.0 | 0.00 | 0.07 | 0.07 | 91 | 1011.1 |
| 20260904035346 | 53 | 118 | 0.0 | 0.0 | 0.00 | 0.07 | 0.07 | 90 | 1011.0 |
| 20260904034845 | 53 | 129 | 0.0 | 1.0 | 0.00 | 0.07 | 0.07 | 90 | 1010.7 |
| 20260904034341 | 53 | 137 | 1.0 | 2.0 | 0.00 | 0.07 | 0.07 | 90 | 1011.0 |
| 20260904033836 | 53 | 118 | 2.0 | 2.0 | 0.00 | 0.07 | 0.07 | 89 | 1010.7 |
| 20260904033332 | 54 | 120 | 2.0 | 3.0 | 0.00 | 0.07 | 0.07 | 88 | 1010.7 |
| 20260904032829 | 54 | 125 | 2.0 | 3.0 | 0.00 | 0.07 | 0.07 | 87 | 1010.6 |
| 20260904032328 | 54 | 104 | 3.0 | 4.0 | 0.00 | 0.07 | 0.07 | 87 | 1010.6 |
| 20260904031822 | 53 | 109 | 2.0 | 3.0 | 0.00 | 0.07 | 0.07 | 88 | 1010.5 |
| 20260904031318 | 53 | 140 | 4.0 | 4.0 | 0.00 | 0.07 | 0.07 | 89 | 1010.3 |
| 20260904030814 | 53 | 146 | 1.0 | 3.0 | 0.00 | 0.07 | 0.07 | 89 | 1010.5 |
| 20260904030309 | 53 | 75 | 1.0 | 3.0 | 0.00 | 0.07 | 0.07 | 90 | 1010.6 |
| 20260904025805 | 53 | 125 | 2.0 | 4.0 | 0.00 | 0.07 | 0.07 | 90 | 1010.3 |
| 20260904025301 | 53 | 116 | 4.0 | 6.0 | 0.00 | 0.07 | 0.07 | 90 | 1010.2 |
| 20260904024755 | 53 | 125 | 3.0 | 6.0 | 0.00 | 0.07 | 0.07 | 90 | 1010.3 |
| 20260904024250 | 54 | 116 | 3.0 | 4.0 | 0.00 | 0.07 | 0.07 | 89 | 1010.4 |
| 20260904023747 | 54 | 103 | 4.0 | 6.0 | 0.00 | 0.07 | 0.07 | 90 | 1010.3 |
| 20260904023243 | 54 | 122 | 3.0 | 6.0 | 0.00 | 0.07 | 0.07 | 90 | 1010.3 |
| 20260904022742 | 54 | 104 | 3.0 | 4.0 | 0.00 | 0.07 | 0.07 | 92 | 1010.5 |
| 20260904022239 | 54 | 111 | 4.0 | 6.0 | 0.00 | 0.07 | 0.07 | 93 | 1010.6 |
| 20260904021735 | 54 | 113 | 1.0 | 3.0 | 0.00 | 0.07 | 0.07 | 92 | 1010.3 |
| 20260904021235 | 54 | 118 | 0.0 | 1.0 | 0.00 | 0.07 | 0.07 | 92 | 1010.4 |
| 20260904020731 | 54 | 94 | 1.0 | 3.0 | 0.00 | 0.07 | 0.07 | 92 | 1010.5 |
| 20260904020230 | 54 | 113 | 1.0 | 2.0 | 0.00 | 0.07 | 0.07 | 92 | 1010.4 |
| 20260904015729 | 55 | 138 | 0.0 | 1.0 | 0.00 | 0.07 | 0.07 | 92 | 1010.4 |
| 20260904015225 | 55 | 120 | 1.0 | 1.0 | 0.00 | 0.07 | 0.07 | 91 | 1010.4 |
| 20260904014723 | 55 | 128 | 0.0 | 1.0 | 0.00 | 0.07 | 0.07 | 91 | 1010.4 |
| 20260904014218 | 55 | 78 | 0.0 | 3.0 | 0.00 | 0.07 | 0.07 | 90 | 1010.4 |
| 20260904013714 | 55 | 108 | 4.0 | 4.0 | 0.00 | 0.07 | 0.07 | 90 | 1010.3 |
| 20260904013210 | 55 | 116 | 1.0 | 2.0 | 0.00 | 0.07 | 0.07 | 89 | 1010.5 |
| 20260904012706 | 55 | 108 | 2.0 | 3.0 | 0.00 | 0.07 | 0.07 | 89 | 1010.5 |
| 20260904012205 | 55 | 105 | 2.0 | 3.0 | 0.00 | 0.07 | 0.07 | 90 | 1010.6 |
| 20260904011705 | 55 | 108 | 3.0 | 4.0 | 0.00 | 0.07 | 0.07 | 90 | 1010.6 |
| 20260904011200 | 55 | 136 | 3.0 | 4.0 | 0.00 | 0.07 | 0.07 | 91 | 1010.6 |
| 20260904010655 | 55 | 104 | 2.0 | 3.0 | 0.00 | 0.07 | 0.07 | 90 | 1011.0 |
| 20260904010152 | 55 | 102 | 2.0 | 2.0 | 0.00 | 0.07 | 0.07 | 90 | 1010.6 |
| 20260904005647 | 55 | 139 | 3.0 | 3.0 | 0.00 | 0.07 | 0.07 | 90 | 1010.5 |
| 20260904005142 | 55 | 97 | 3.0 | 3.0 | 0.00 | 0.07 | 0.07 | 90 | 1010.6 |
| 20260904004638 | 55 | 109 | 3.0 | 3.0 | 0.00 | 0.07 | 0.07 | 90 | 1010.7 |
| 20260904004137 | 55 | 98 | 1.0 | 3.0 | 0.00 | 0.07 | 0.07 | 88 | 1010.8 |
| 20260904003633 | 55 | 120 | 0.0 | 2.0 | 0.00 | 0.07 | 0.07 | 86 | 1010.6 |
| 20260904003130 | 55 | 121 | 0.0 | 1.0 | 0.00 | 0.07 | 0.07 | 85 | 1011.1 |
| 20260904002626 | 55 | 137 | 0.0 | 1.0 | 0.00 | 0.07 | 0.07 | 87 | 1011.0 |
| 20260904002126 | 55 | 137 | 0.0 | 1.0 | 0.00 | 0.07 | 0.07 | 87 | 1011.3 |
| 20260904001621 | 56 | 133 | 1.0 | 3.0 | 0.00 | 0.07 | 0.07 | 85 | 1011.2 |
| 20260904001119 | 55 | 140 | 0.0 | 1.0 | 0.00 | 0.07 | 0.07 | 86 | 1010.8 |
| 20260904000615 | 55 | 133 | 0.0 | 1.0 | 0.00 | 0.07 | 0.07 | 86 | 1010.5 |
| 20260904000111 | 55 | 135 | 0.0 | 0.0 | 0.00 | 0.07 | 0.07 | 88 | 1011.0 |
| 20260903235610 | 55 | 218 | 2.0 | 2.0 | 0.00 | 0.07 | 0.07 | 86 | 1010.5 |
| 20260903235107 | 55 | 102 | 0.0 | 2.0 | 0.00 | 0.07 | 0.07 | 85 | 1010.4 |
| 20260903234601 | 55 | 106 | 0.0 | 1.0 | 0.00 | 0.07 | 0.07 | 85 | 1010.6 |
| 20260903234057 | 54 | 118 | 0.0 | 1.0 | 0.00 | 0.07 | 0.07 | 86 | 1010.6 |
| 20260903233553 | 54 | 142 | 1.0 | 4.0 | 0.00 | 0.07 | 0.07 | 85 | 1010.5 |
| 20260903233048 | 55 | 181 | 2.0 | 3.0 | 0.00 | 0.07 | 0.07 | 85 | 1010.7 |
| 20260903232543 | 55 | 28 | 0.0 | 2.0 | 0.05 | 0.07 | 0.07 | 83 | 1010.8 |